Time,TemperatureF,DewpointF,PressureIn,WindDirection,WindDirectionDegrees,WindSpeedMPH,WindSpeedGustMPH,Humidity,HourlyPrecipIn,Conditions,Clouds,dailyrainin,SoftwareType,DateUTC
2013-08-01 00:05:00,65.0,49.3,29.89,North,0,0.0,0.0,57,0.00,,,0.00,WUHU216HW,2013-08-01 07:05:00,
2013-08-01 00:10:00,64.8,49.2,29.89,North,0,0.0,0.0,57,0.00,,,0.00,WUHU216HW,2013-08-01 07:10:00,
2013-08-01 00:15:00,64.8,49.6,29.89,North,0,0.0,0.0,58,0.00,,,0.00,WUHU216HW,2013-08-01 07:15:00,
2013-08-01 00:20:00,64.4,49.2,29.89,North,0,0.0,0.0,58,0.00,,,0.00,WUHU216HW,2013-08-01 07:20:00,
2013-08-01 00:25:00,64.4,49.2,29.89,North,0,0.0,0.0,58,0.00,,,0.00,WUHU216HW,2013-08-01 07:25:00,
2013-08-01 00:30:00,64.4,49.8,29.89,North,0,0.0,0.0,59,0.00,,,0.00,WUHU216HW,2013-08-01 07:30:00,
2013-08-01 00:35:00,64.3,49.6,29.89,North,0,0.0,0.0,59,0.00,,,0.00,WUHU216HW,2013-08-01 07:35:00,
2013-08-01 00:40:00,64.1,49.4,29.89,North,0,0.0,0.0,59,0.00,,,0.00,WUHU216HW,2013-08-01 07:40:00,
2013-08-01 00:45:00,64.1,49.4,29.89,North,0,0.0,0.0,59,0.00,,,0.00,WUHU216HW,2013-08-01 07:45:00,
2013-08-01 00:50:00,63.9,49.8,29.89,North,0,0.0,0.0,60,0.00,,,0.00,WUHU216HW,2013-08-01 07:50:00,
2013-08-01 00:55:00,63.7,49.6,29.89,North,0,0.0,0.0,60,0.00,,,0.00,WUHU216HW,2013-08-01 07:55:00,
2013-08-01 01:00:00,63.7,49.6,29.89,North,0,0.0,0.0,60,0.00,,,0.00,WUHU216HW,2013-08-01 08:00:00,
2013-08-01 01:05:00,63.7,49.6,29.89,North,0,0.0,0.0,60,0.00,,,0.00,WUHU216HW,2013-08-01 08:05:00,
2013-08-01 01:10:00,63.5,49.4,29.89,North,0,0.0,0.0,60,0.00,,,0.00,WUHU216HW,2013-08-01 08:10:00,
2013-08-01 01:15:00,63.4,49.7,29.90,North,0,0.0,0.0,61,0.00,,,0.00,WUHU216HW,2013-08-01 08:15:00,
2013-08-01 01:20:00,63.4,49.7,29.89,North,0,0.0,0.0,61,0.00,,,0.00,WUHU216HW,2013-08-01 08:20:00,
2013-08-01 01:25:00,63.2,50.0,29.89,North,0,0.0,0.0,62,0.00,,,0.00,WUHU216HW,2013-08-01 08:25:00,
2013-08-01 01:30:00,63.0,49.3,29.89,North,0,0.0,0.0,61,0.00,,,0.00,WUHU216HW,2013-08-01 08:30:00,
2013-08-01 01:36:00,63.0,49.8,29.89,North,0,0.0,0.0,62,0.00,,,0.00,WUHU216HW,2013-08-01 08:36:00,
2013-08-01 01:41:00,62.8,49.6,29.89,North,0,0.0,0.0,62,0.00,,,0.00,WUHU216HW,2013-08-01 08:41:00,
2013-08-01 01:46:00,62.8,49.6,29.89,North,0,0.0,0.0,62,0.00,,,0.00,WUHU216HW,2013-08-01 08:46:00,
2013-08-01 01:51:00,62.6,49.4,29.89,North,0,0.0,0.0,62,0.00,,,0.00,WUHU216HW,2013-08-01 08:51:00,
2013-08-01 01:56:00,62.6,49.4,29.89,North,0,0.0,0.0,62,0.00,,,0.00,WUHU216HW,2013-08-01 08:56:00,
2013-08-01 02:01:00,62.5,49.7,29.89,North,0,0.0,0.0,63,0.00,,,0.00,WUHU216HW,2013-08-01 09:01:00,
2013-08-01 02:07:00,62.5,49.7,29.89,North,0,0.0,0.0,63,0.00,,,0.00,WUHU216HW,2013-08-01 09:07:00,
2013-08-01 02:13:00,62.5,49.7,29.89,North,0,0.0,0.0,63,0.00,,,0.00,WUHU216HW,2013-08-01 09:13:00,
2013-08-01 02:19:00,62.5,49.7,29.88,North,0,0.0,0.0,63,0.00,,,0.00,WUHU216HW,2013-08-01 09:19:00,
2013-08-01 02:25:00,62.3,49.5,29.89,North,0,0.0,0.0,63,0.00,,,0.00,WUHU216HW,2013-08-01 09:25:00,
2013-08-01 02:30:00,62.3,49.5,29.89,North,0,0.0,0.0,63,0.00,,,0.00,WUHU216HW,2013-08-01 09:30:00,
2013-08-01 02:35:00,62.1,49.8,29.89,North,0,0.0,0.0,64,0.00,,,0.00,WUHU216HW,2013-08-01 09:35:00,
2013-08-01 02:40:00,61.9,49.6,29.88,North,0,0.0,0.0,64,0.00,,,0.00,WUHU216HW,2013-08-01 09:40:00,
2013-08-01 02:45:00,61.9,49.6,29.88,North,0,0.0,0.0,64,0.00,,,0.00,WUHU216HW,2013-08-01 09:45:00,
2013-08-01 02:51:00,61.7,49.9,29.88,North,0,0.0,0.0,65,0.00,,,0.00,WUHU216HW,2013-08-01 09:51:00,
2013-08-01 02:57:00,61.6,49.7,29.88,North,0,0.0,0.0,65,0.00,,,0.00,WUHU216HW,2013-08-01 09:57:00,
2013-08-01 03:03:00,61.6,49.7,29.88,North,0,0.0,0.0,65,0.00,,,0.00,WUHU216HW,2013-08-01 10:03:00,
2013-08-01 03:08:00,61.6,49.7,29.88,North,0,0.0,0.0,65,0.00,,,0.00,WUHU216HW,2013-08-01 10:08:00,
2013-08-01 03:14:00,61.4,49.5,29.88,North,0,0.0,0.0,65,0.00,,,0.00,WUHU216HW,2013-08-01 10:14:00,
2013-08-01 03:19:00,61.2,49.8,29.88,North,0,0.0,0.0,66,0.00,,,0.00,WUHU216HW,2013-08-01 10:19:00,
2013-08-01 03:24:00,61.2,49.8,29.88,North,0,0.0,0.0,66,0.00,,,0.00,WUHU216HW,2013-08-01 10:24:00,
2013-08-01 03:29:00,61.0,49.2,29.88,North,0,0.0,0.0,65,0.00,,,0.00,WUHU216HW,2013-08-01 10:29:00,
2013-08-01 03:34:00,61.0,49.2,29.88,North,0,0.0,0.0,65,0.00,,,0.00,WUHU216HW,2013-08-01 10:34:00,
2013-08-01 03:40:00,60.8,49.5,29.88,North,0,0.0,0.0,66,0.00,,,0.00,WUHU216HW,2013-08-01 10:40:00,
2013-08-01 03:45:00,60.8,49.5,29.88,North,0,0.0,0.0,66,0.00,,,0.00,WUHU216HW,2013-08-01 10:45:00,
2013-08-01 03:51:00,60.7,49.3,29.88,North,0,0.0,0.0,66,0.00,,,0.00,WUHU216HW,2013-08-01 10:51:00,
2013-08-01 03:56:00,60.5,49.2,29.88,North,0,0.0,0.0,66,0.00,,,0.00,WUHU216HW,2013-08-01 10:56:00,
2013-08-01 04:01:00,60.5,49.2,29.88,North,0,0.0,0.0,66,0.00,,,0.00,WUHU216HW,2013-08-01 11:01:00,
2013-08-01 04:06:00,60.3,49.3,29.88,North,0,0.0,0.0,67,0.00,,,0.00,WUHU216HW,2013-08-01 11:06:00,
2013-08-01 04:11:00,60.3,49.8,29.88,North,0,0.0,0.0,68,0.00,,,0.00,WUHU216HW,2013-08-01 11:11:00,
2013-08-01 04:17:00,60.1,49.6,29.89,North,0,0.0,0.0,68,0.00,,,0.00,WUHU216HW,2013-08-01 11:17:00,
2013-08-01 04:22:00,60.1,49.6,29.88,North,0,0.0,0.0,68,0.00,,,0.00,WUHU216HW,2013-08-01 11:22:00,
2013-08-01 04:27:00,59.9,49.4,29.89,North,0,0.0,0.0,68,0.00,,,0.00,WUHU216HW,2013-08-01 11:27:00,
2013-08-01 04:32:00,59.8,49.2,29.89,North,0,0.0,0.0,68,0.00,,,0.00,WUHU216HW,2013-08-01 11:32:00,
2013-08-01 04:37:00,59.8,49.2,29.89,North,0,0.0,0.0,68,0.00,,,0.00,WUHU216HW,2013-08-01 11:37:00,
2013-08-01 04:43:00,59.6,49.1,29.88,North,0,0.0,0.0,68,0.00,,,0.00,WUHU216HW,2013-08-01 11:43:00,
2013-08-01 04:48:00,59.6,49.1,29.88,North,0,0.0,0.0,68,0.00,,,0.00,WUHU216HW,2013-08-01 11:48:00,
2013-08-01 04:53:00,59.4,49.2,29.89,North,0,0.0,0.0,69,0.00,,,0.00,WUHU216HW,2013-08-01 11:53:00,
2013-08-01 04:58:00,59.4,49.2,29.89,North,0,0.0,0.0,69,0.00,,,0.00,WUHU216HW,2013-08-01 11:58:00,
2013-08-01 05:03:00,59.4,49.2,29.89,North,0,0.0,0.0,69,0.00,,,0.00,WUHU216HW,2013-08-01 12:03:00,
2013-08-01 05:08:00,59.2,49.1,29.89,North,0,0.0,0.0,69,0.00,,,0.00,WUHU216HW,2013-08-01 12:08:00,
2013-08-01 05:14:00,59.2,49.1,29.89,North,0,0.0,0.0,69,0.00,,,0.00,WUHU216HW,2013-08-01 12:14:00,
2013-08-01 05:19:00,59.0,49.3,29.89,North,0,0.0,0.0,70,0.00,,,0.00,WUHU216HW,2013-08-01 12:19:00,
2013-08-01 05:24:00,59.0,49.3,29.89,North,0,0.0,0.0,70,0.00,,,0.00,WUHU216HW,2013-08-01 12:24:00,
2013-08-01 05:30:00,59.0,49.7,29.89,North,0,0.0,0.0,71,0.00,,,0.00,WUHU216HW,2013-08-01 12:30:00,
2013-08-01 05:35:00,59.0,49.3,29.89,North,0,0.0,0.0,70,0.00,,,0.00,WUHU216HW,2013-08-01 12:35:00,
2013-08-01 05:40:00,59.0,49.7,29.89,North,0,0.0,0.0,71,0.00,,,0.00,WUHU216HW,2013-08-01 12:40:00,
2013-08-01 05:46:00,59.0,49.7,29.90,North,0,0.0,0.0,71,0.00,,,0.00,WUHU216HW,2013-08-01 12:46:00,
2013-08-01 05:51:00,58.9,49.1,29.90,North,0,0.0,0.0,70,0.00,,,0.00,WUHU216HW,2013-08-01 12:51:00,
2013-08-01 05:56:00,58.9,49.5,29.90,North,0,0.0,0.0,71,0.00,,,0.00,WUHU216HW,2013-08-01 12:56:00,
2013-08-01 06:01:00,58.7,49.3,29.90,North,0,0.0,0.0,71,0.00,,,0.00,WUHU216HW,2013-08-01 13:01:00,
2013-08-01 06:06:00,58.7,49.3,29.90,North,0,0.0,0.0,71,0.00,,,0.00,WUHU216HW,2013-08-01 13:06:00,
2013-08-01 06:12:00,58.7,49.3,29.90,North,0,0.0,0.0,71,0.00,,,0.00,WUHU216HW,2013-08-01 13:12:00,
2013-08-01 06:17:00,58.7,49.3,29.90,North,0,0.0,0.0,71,0.00,,,0.00,WUHU216HW,2013-08-01 13:17:00,
2013-08-01 06:23:00,58.5,49.1,29.91,North,0,0.0,0.0,71,0.00,,,0.00,WUHU216HW,2013-08-01 13:23:00,
2013-08-01 06:28:00,58.3,49.0,29.91,North,0,0.0,0.0,71,0.00,,,0.00,WUHU216HW,2013-08-01 13:28:00,
2013-08-01 06:34:00,58.3,49.0,29.91,North,0,0.0,0.0,71,0.00,,,0.00,WUHU216HW,2013-08-01 13:34:00,
2013-08-01 06:39:00,58.3,49.0,29.91,North,0,0.0,0.0,71,0.00,,,0.00,WUHU216HW,2013-08-01 13:39:00,
2013-08-01 06:44:00,58.3,49.7,29.91,North,0,0.0,0.0,73,0.00,,,0.00,WUHU216HW,2013-08-01 13:44:00,
2013-08-01 06:50:00,58.7,50.0,29.91,North,0,0.0,0.0,73,0.00,,,0.00,WUHU216HW,2013-08-01 13:50:00,
2013-08-01 06:55:00,58.9,50.2,29.91,North,0,0.0,0.0,73,0.00,,,0.00,WUHU216HW,2013-08-01 13:55:00,
2013-08-01 07:00:00,59.4,50.8,29.92,North,0,0.0,0.0,73,0.00,,,0.00,WUHU216HW,2013-08-01 14:00:00,
2013-08-01 07:05:00,59.4,50.8,29.91,North,0,0.0,0.0,73,0.00,,,0.00,WUHU216HW,2013-08-01 14:05:00,
2013-08-01 07:11:00,59.9,51.3,29.91,North,0,0.0,0.0,73,0.00,,,0.00,WUHU216HW,2013-08-01 14:11:00,
2013-08-01 07:17:00,60.3,51.3,29.91,North,0,0.0,0.0,72,0.00,,,0.00,WUHU216HW,2013-08-01 14:17:00,
2013-08-01 07:22:00,60.7,51.7,29.91,North,0,0.0,0.0,72,0.00,,,0.00,WUHU216HW,2013-08-01 14:22:00,
2013-08-01 07:27:00,60.8,51.5,29.91,North,0,0.0,0.0,71,0.00,,,0.00,WUHU216HW,2013-08-01 14:27:00,
2013-08-01 07:33:00,60.8,51.5,29.92,North,0,0.0,0.0,71,0.00,,,0.00,WUHU216HW,2013-08-01 14:33:00,
2013-08-01 07:38:00,61.0,51.7,29.92,North,0,0.0,0.0,71,0.00,,,0.00,WUHU216HW,2013-08-01 14:38:00,
2013-08-01 07:43:00,61.2,51.9,29.92,North,0,0.0,0.0,71,0.00,,,0.00,WUHU216HW,2013-08-01 14:43:00,
2013-08-01 07:48:00,61.6,52.1,29.92,North,0,0.0,0.0,71,0.00,,,0.00,WUHU216HW,2013-08-01 14:48:00,
2013-08-01 07:53:00,61.7,52.3,29.93,North,0,0.0,0.0,71,0.00,,,0.00,WUHU216HW,2013-08-01 14:53:00,
2013-08-01 07:58:00,61.9,52.1,29.92,North,0,0.0,0.0,70,0.00,,,0.00,WUHU216HW,2013-08-01 14:58:00,
2013-08-01 08:04:00,62.3,52.7,29.93,North,0,0.0,0.0,71,0.00,,,0.00,WUHU216HW,2013-08-01 15:04:00,
2013-08-01 08:09:00,62.5,52.9,29.93,North,0,0.0,0.0,71,0.00,,,0.00,WUHU216HW,2013-08-01 15:09:00,
2013-08-01 08:14:00,62.6,53.1,29.93,North,0,0.0,0.0,71,0.00,,,0.00,WUHU216HW,2013-08-01 15:14:00,
2013-08-01 08:19:00,63.0,53.5,29.93,North,0,0.0,0.0,71,0.00,,,0.00,WUHU216HW,2013-08-01 15:19:00,
2013-08-01 08:24:00,63.4,53.5,29.93,North,0,0.0,0.0,70,0.00,,,0.00,WUHU216HW,2013-08-01 15:24:00,
2013-08-01 08:30:00,63.5,53.6,29.93,North,0,0.0,0.0,70,0.00,,,0.00,WUHU216HW,2013-08-01 15:30:00,
2013-08-01 08:35:00,63.9,54.0,29.93,North,0,0.0,0.0,70,0.00,,,0.00,WUHU216HW,2013-08-01 15:35:00,
2013-08-01 08:40:00,64.3,53.9,29.93,North,0,0.0,0.0,69,0.00,,,0.00,WUHU216HW,2013-08-01 15:40:00,
2013-08-01 08:45:00,64.6,54.3,29.93,North,0,0.0,0.0,69,0.00,,,0.00,WUHU216HW,2013-08-01 15:45:00,
2013-08-01 08:50:00,65.0,54.2,29.94,North,0,0.0,0.0,68,0.00,,,0.00,WUHU216HW,2013-08-01 15:50:00,
2013-08-01 08:56:00,65.2,54.4,29.93,North,0,0.0,0.0,68,0.00,,,0.00,WUHU216HW,2013-08-01 15:56:00,
2013-08-01 09:01:00,65.9,54.2,29.93,North,0,0.0,0.0,66,0.00,,,0.00,WUHU216HW,2013-08-01 16:01:00,
2013-08-01 09:07:00,66.1,54.4,29.94,North,0,0.0,0.0,66,0.00,,,0.00,WUHU216HW,2013-08-01 16:07:00,
2013-08-01 09:12:00,66.2,54.1,29.94,North,0,0.0,0.0,65,0.00,,,0.00,WUHU216HW,2013-08-01 16:12:00,
2013-08-01 09:17:00,66.6,54.5,29.93,North,0,0.0,0.0,65,0.00,,,0.00,WUHU216HW,2013-08-01 16:17:00,
2013-08-01 09:23:00,67.1,54.9,29.93,North,0,0.0,0.0,65,0.00,,,0.00,WUHU216HW,2013-08-01 16:23:00,
2013-08-01 09:29:00,67.5,54.5,29.93,North,0,0.0,0.0,63,0.00,,,0.00,WUHU216HW,2013-08-01 16:29:00,
2013-08-01 09:34:00,67.9,54.8,29.93,North,0,0.0,0.0,63,0.00,,,0.00,WUHU216HW,2013-08-01 16:34:00,
2013-08-01 09:40:00,68.0,54.9,29.93,North,0,0.0,0.0,63,0.00,,,0.00,WUHU216HW,2013-08-01 16:40:00,
2013-08-01 09:45:00,68.6,55.0,29.94,North,0,0.0,0.0,62,0.00,,,0.00,WUHU216HW,2013-08-01 16:45:00,
2013-08-01 09:50:00,68.8,55.2,29.94,North,0,0.0,0.0,62,0.00,,,0.00,WUHU216HW,2013-08-01 16:50:00,
2013-08-01 09:56:00,68.9,55.4,29.94,North,0,0.0,0.0,62,0.00,,,0.00,WUHU216HW,2013-08-01 16:56:00,
2013-08-01 10:01:00,69.5,55.5,29.94,North,0,0.0,0.0,61,0.00,,,0.00,WUHU216HW,2013-08-01 17:01:00,
2013-08-01 10:06:00,69.7,55.3,29.94,North,0,0.0,0.0,60,0.00,,,0.00,WUHU216HW,2013-08-01 17:06:00,
2013-08-01 10:12:00,70.0,55.6,29.94,North,0,0.0,0.0,60,0.00,,,0.00,WUHU216HW,2013-08-01 17:12:00,
2013-08-01 10:17:00,70.4,55.5,29.94,North,0,0.0,0.0,59,0.00,,,0.00,WUHU216HW,2013-08-01 17:17:00,
2013-08-01 10:22:00,70.6,55.6,29.95,North,0,0.0,0.0,59,0.00,,,0.00,WUHU216HW,2013-08-01 17:22:00,
2013-08-01 10:28:00,70.7,55.7,29.95,North,0,0.0,0.0,59,0.00,,,0.00,WUHU216HW,2013-08-01 17:28:00,
2013-08-01 10:33:00,70.9,55.9,29.94,North,0,0.0,0.0,59,0.00,,,0.00,WUHU216HW,2013-08-01 17:33:00,
2013-08-01 10:38:00,71.3,55.7,29.95,North,0,0.0,0.0,58,0.00,,,0.00,WUHU216HW,2013-08-01 17:38:00,
2013-08-01 10:43:00,71.6,56.1,29.95,North,0,0.0,0.0,58,0.00,,,0.00,WUHU216HW,2013-08-01 17:43:00,
2013-08-01 10:48:00,71.8,56.3,29.94,North,0,0.0,0.0,58,0.00,,,0.00,WUHU216HW,2013-08-01 17:48:00,
2013-08-01 10:53:00,72.0,55.9,29.95,North,0,0.0,0.0,57,0.00,,,0.00,WUHU216HW,2013-08-01 17:53:00,
2013-08-01 10:58:00,72.7,56.0,29.95,North,0,0.0,0.0,56,0.00,,,0.00,WUHU216HW,2013-08-01 17:58:00,
2013-08-01 11:03:00,72.7,56.0,29.95,North,0,0.0,0.0,56,0.00,,,0.00,WUHU216HW,2013-08-01 18:03:00,
2013-08-01 11:08:00,73.1,56.3,29.95,North,0,0.0,0.0,56,0.00,,,0.00,WUHU216HW,2013-08-01 18:08:00,
2013-08-01 11:13:00,73.4,56.2,29.95,North,0,0.0,0.0,55,0.00,,,0.00,WUHU216HW,2013-08-01 18:13:00,
2013-08-01 11:18:00,74.2,56.9,29.95,North,0,0.0,0.0,55,0.00,,,0.00,WUHU216HW,2013-08-01 18:18:00,
2013-08-01 11:23:00,74.5,56.7,29.95,North,0,0.0,0.0,54,0.00,,,0.00,WUHU216HW,2013-08-01 18:23:00,
2013-08-01 11:28:00,74.5,56.3,29.95,North,0,0.0,0.0,53,0.00,,,0.00,WUHU216HW,2013-08-01 18:28:00,
2013-08-01 11:34:00,74.7,56.4,29.95,North,0,0.0,0.0,53,0.00,,,0.00,WUHU216HW,2013-08-01 18:34:00,
2013-08-01 11:39:00,74.9,56.1,29.95,North,0,0.0,0.0,52,0.00,,,0.00,WUHU216HW,2013-08-01 18:39:00,
2013-08-01 11:44:00,75.2,56.4,29.95,North,0,0.0,0.0,52,0.00,,,0.00,WUHU216HW,2013-08-01 18:44:00,
2013-08-01 11:50:00,75.6,56.3,29.95,North,0,0.0,0.0,51,0.00,,,0.00,WUHU216HW,2013-08-01 18:50:00,
2013-08-01 11:55:00,76.0,55.4,29.94,North,0,0.0,0.0,49,0.00,,,0.00,WUHU216HW,2013-08-01 18:55:00,
2013-08-01 12:00:00,75.8,55.4,29.94,North,0,0.0,0.0,49,0.00,,,0.00,WUHU216HW,2013-08-01 19:00:00,
2013-08-01 12:06:00,76.0,56.1,29.94,North,0,0.0,0.0,50,0.00,,,0.00,WUHU216HW,2013-08-01 19:06:00,
2013-08-01 12:11:00,76.3,55.8,29.94,North,0,0.0,0.0,49,0.00,,,0.00,WUHU216HW,2013-08-01 19:11:00,
2013-08-01 12:17:00,77.2,56.0,29.94,North,0,0.0,0.0,48,0.00,,,0.00,WUHU216HW,2013-08-01 19:17:00,
2013-08-01 12:22:00,77.8,55.3,29.94,North,0,0.0,0.0,46,0.00,,,0.00,WUHU216HW,2013-08-01 19:22:00,
2013-08-01 12:27:00,78.1,56.2,29.94,North,0,0.0,0.0,47,0.00,,,0.00,WUHU216HW,2013-08-01 19:27:00,
2013-08-01 12:32:00,78.5,55.9,29.94,North,0,0.0,0.0,46,0.00,,,0.00,WUHU216HW,2013-08-01 19:32:00,
2013-08-01 12:37:00,78.7,56.7,29.94,North,0,0.0,0.0,47,0.00,,,0.00,WUHU216HW,2013-08-01 19:37:00,
2013-08-01 12:42:00,78.8,56.3,29.94,North,0,0.0,0.0,46,0.00,,,0.00,WUHU216HW,2013-08-01 19:42:00,
2013-08-01 12:48:00,79.7,56.4,29.93,North,0,0.0,0.0,45,0.00,,,0.00,WUHU216HW,2013-08-01 19:48:00,
2013-08-01 12:53:00,80.1,56.8,29.93,North,0,0.0,0.0,45,0.00,,,0.00,WUHU216HW,2013-08-01 19:53:00,
2013-08-01 12:59:00,80.8,56.8,29.93,North,0,0.0,0.0,44,0.00,,,0.00,WUHU216HW,2013-08-01 19:59:00,
2013-08-01 13:04:00,80.6,56.6,29.93,North,0,0.0,0.0,44,0.00,,,0.00,WUHU216HW,2013-08-01 20:04:00,
2013-08-01 13:10:00,81.0,56.3,29.93,North,0,0.0,0.0,43,0.00,,,0.00,WUHU216HW,2013-08-01 20:10:00,
2013-08-01 13:15:00,81.2,56.5,29.93,North,0,0.0,0.0,43,0.00,,,0.00,WUHU216HW,2013-08-01 20:15:00,
2013-08-01 13:20:00,81.5,56.3,29.93,North,0,0.0,0.0,42,0.00,,,0.00,WUHU216HW,2013-08-01 20:20:00,
2013-08-01 13:25:00,82.1,56.1,29.93,North,0,0.0,0.0,41,0.00,,,0.00,WUHU216HW,2013-08-01 20:25:00,
2013-08-01 13:30:00,83.0,56.3,29.93,North,0,0.0,0.0,40,0.00,,,0.00,WUHU216HW,2013-08-01 20:30:00,
2013-08-01 13:35:00,83.2,56.4,29.92,North,0,0.0,0.0,40,0.00,,,0.00,WUHU216HW,2013-08-01 20:35:00,
2013-08-01 13:41:00,84.1,57.2,29.92,North,0,0.0,0.0,40,0.00,,,0.00,WUHU216HW,2013-08-01 20:41:00,
2013-08-01 13:46:00,85.0,56.5,29.92,North,0,0.0,0.0,38,0.00,,,0.00,WUHU216HW,2013-08-01 20:46:00,
2013-08-01 13:52:00,85.1,56.6,29.92,North,0,0.0,0.0,38,0.00,,,0.00,WUHU216HW,2013-08-01 20:52:00,
2013-08-01 13:57:00,85.5,56.2,29.92,North,0,0.0,0.0,37,0.00,,,0.00,WUHU216HW,2013-08-01 20:57:00,
2013-08-01 14:02:00,85.7,55.5,29.91,North,0,0.0,0.0,36,0.00,,,0.00,WUHU216HW,2013-08-01 21:02:00,
2013-08-01 14:07:00,86.4,55.4,29.91,North,0,0.0,0.0,35,0.00,,,0.00,WUHU216HW,2013-08-01 21:07:00,
2013-08-01 14:12:00,86.6,55.5,29.91,North,0,0.0,0.0,35,0.00,,,0.00,WUHU216HW,2013-08-01 21:12:00,
2013-08-01 14:17:00,86.9,55.8,29.91,North,0,0.0,0.0,35,0.00,,,0.00,WUHU216HW,2013-08-01 21:17:00,
2013-08-01 14:22:00,87.5,56.4,29.91,North,0,0.0,0.0,35,0.00,,,0.00,WUHU216HW,2013-08-01 21:22:00,
2013-08-01 14:28:00,87.8,55.0,29.90,North,0,0.0,0.0,33,0.00,,,0.00,WUHU216HW,2013-08-01 21:28:00,
2013-08-01 14:33:00,88.4,56.3,29.90,North,0,0.0,0.0,34,0.00,,,0.00,WUHU216HW,2013-08-01 21:33:00,
2013-08-01 14:38:00,88.7,55.8,29.90,North,0,0.0,0.0,33,0.00,,,0.00,WUHU216HW,2013-08-01 21:38:00,
2013-08-01 14:43:00,88.9,56.7,29.90,North,0,0.0,0.0,34,0.00,,,0.00,WUHU216HW,2013-08-01 21:43:00,
2013-08-01 14:49:00,89.3,56.3,29.90,North,0,0.0,0.0,33,0.00,,,0.00,WUHU216HW,2013-08-01 21:49:00,
2013-08-01 14:54:00,89.6,56.5,29.90,North,0,0.0,0.0,33,0.00,,,0.00,WUHU216HW,2013-08-01 21:54:00,
2013-08-01 14:59:00,89.8,56.7,29.90,North,0,0.0,0.0,33,0.00,,,0.00,WUHU216HW,2013-08-01 21:59:00,
2013-08-01 15:04:00,90.2,56.3,29.89,North,0,0.0,0.0,32,0.00,,,0.00,WUHU216HW,2013-08-01 22:04:00,
2013-08-01 15:09:00,90.0,56.1,29.89,North,0,0.0,0.0,32,0.00,,,0.00,WUHU216HW,2013-08-01 22:09:00,
2013-08-01 15:14:00,90.2,55.4,29.89,North,0,0.0,0.0,31,0.00,,,0.00,WUHU216HW,2013-08-01 22:14:00,
2013-08-01 15:19:00,90.5,55.8,29.88,North,0,0.0,0.0,31,0.00,,,0.00,WUHU216HW,2013-08-01 22:19:00,
2013-08-01 15:25:00,90.7,55.2,29.88,North,0,0.0,0.0,30,0.00,,,0.00,WUHU216HW,2013-08-01 22:25:00,
2013-08-01 15:30:00,90.9,55.4,29.88,North,0,0.0,0.0,30,0.00,,,0.00,WUHU216HW,2013-08-01 22:30:00,
2013-08-01 15:35:00,91.1,55.4,29.88,North,0,0.0,0.0,30,0.00,,,0.00,WUHU216HW,2013-08-01 22:35:00,
2013-08-01 15:40:00,90.9,55.4,29.88,North,0,0.0,0.0,30,0.00,,,0.00,WUHU216HW,2013-08-01 22:40:00,
2013-08-01 15:45:00,91.1,54.4,29.88,North,0,0.0,0.0,29,0.00,,,0.00,WUHU216HW,2013-08-01 22:45:00,
2013-08-01 15:50:00,90.9,52.0,29.87,North,0,0.0,0.0,27,0.00,,,0.00,WUHU216HW,2013-08-01 22:50:00,
2013-08-01 15:55:00,90.9,54.2,29.87,North,0,0.0,0.0,29,0.00,,,0.00,WUHU216HW,2013-08-01 22:55:00,
2013-08-01 16:00:00,91.1,52.2,29.87,North,0,0.0,0.0,27,0.00,,,0.00,WUHU216HW,2013-08-01 23:00:00,
2013-08-01 16:05:00,91.1,52.2,29.87,North,0,0.0,0.0,27,0.00,,,0.00,WUHU216HW,2013-08-01 23:05:00,
2013-08-01 16:10:00,91.1,54.4,29.87,North,0,0.0,0.0,29,0.00,,,0.00,WUHU216HW,2013-08-01 23:10:00,
2013-08-01 16:16:00,91.3,54.5,29.86,North,0,0.0,0.0,29,0.00,,,0.00,WUHU216HW,2013-08-01 23:16:00,
2013-08-01 16:21:00,91.4,54.7,29.86,North,0,0.0,0.0,29,0.00,,,0.00,WUHU216HW,2013-08-01 23:21:00,
2013-08-01 16:26:00,91.4,53.7,29.86,North,0,0.0,0.0,28,0.00,,,0.00,WUHU216HW,2013-08-01 23:26:00,
2013-08-01 16:31:00,91.6,53.7,29.86,North,0,0.0,0.0,28,0.00,,,0.00,WUHU216HW,2013-08-01 23:31:00,
2013-08-01 16:36:00,91.4,52.5,29.85,North,0,0.0,0.0,27,0.00,,,0.00,WUHU216HW,2013-08-01 23:36:00,
2013-08-01 16:42:00,91.4,52.5,29.85,North,0,0.0,0.0,27,0.00,,,0.00,WUHU216HW,2013-08-01 23:42:00,
2013-08-01 16:47:00,91.4,52.5,29.85,North,0,0.0,0.0,27,0.00,,,0.00,WUHU216HW,2013-08-01 23:47:00,
2013-08-01 16:52:00,91.1,50.1,29.85,North,0,0.0,0.0,25,0.00,,,0.00,WUHU216HW,2013-08-01 23:52:00,
2013-08-01 16:57:00,90.7,49.7,29.85,North,0,0.0,0.0,25,0.00,,,0.00,WUHU216HW,2013-08-01 23:57:00,
2013-08-01 17:02:00,90.4,51.6,29.85,North,0,0.0,0.0,27,0.00,,,0.00,WUHU216HW,2013-08-02 00:02:00,
2013-08-01 17:07:00,90.2,51.4,29.85,North,0,0.0,0.0,27,0.00,,,0.00,WUHU216HW,2013-08-02 00:07:00,
2013-08-01 17:12:00,90.0,51.2,29.85,North,0,0.0,0.0,27,0.00,,,0.00,WUHU216HW,2013-08-02 00:12:00,
2013-08-01 17:18:00,89.5,51.8,29.85,North,0,0.0,0.0,28,0.00,,,0.00,WUHU216HW,2013-08-02 00:18:00,
2013-08-01 17:23:00,89.3,51.7,29.85,North,0,0.0,0.0,28,0.00,,,0.00,WUHU216HW,2013-08-02 00:23:00,
2013-08-01 17:28:00,88.9,52.5,29.84,North,0,0.0,0.0,29,0.00,,,0.00,WUHU216HW,2013-08-02 00:28:00,
2013-08-01 17:33:00,88.6,52.1,29.84,North,0,0.0,0.0,29,0.00,,,0.00,WUHU216HW,2013-08-02 00:33:00,
2013-08-01 17:38:00,88.2,51.9,29.84,North,0,0.0,0.0,29,0.00,,,0.00,WUHU216HW,2013-08-02 00:38:00,
2013-08-01 17:43:00,88.0,52.8,29.84,North,0,0.0,0.0,30,0.00,,,0.00,WUHU216HW,2013-08-02 00:43:00,
2013-08-01 17:48:00,87.8,52.6,29.84,North,0,0.0,0.0,30,0.00,,,0.00,WUHU216HW,2013-08-02 00:48:00,
2013-08-01 17:53:00,87.8,52.6,29.84,North,0,0.0,0.0,30,0.00,,,0.00,WUHU216HW,2013-08-02 00:53:00,
2013-08-01 17:58:00,87.5,53.1,29.84,North,0,0.0,0.0,31,0.00,,,0.00,WUHU216HW,2013-08-02 00:58:00,
2013-08-01 18:04:00,87.1,52.8,29.84,North,0,0.0,0.0,31,0.00,,,0.00,WUHU216HW,2013-08-02 01:04:00,
2013-08-01 18:09:00,86.6,53.2,29.83,North,0,0.0,0.0,32,0.00,,,0.00,WUHU216HW,2013-08-02 01:09:00,
2013-08-01 18:14:00,86.4,52.2,29.83,North,0,0.0,0.0,31,0.00,,,0.00,WUHU216HW,2013-08-02 01:14:00,
2013-08-01 18:19:00,86.2,52.0,29.83,North,0,0.0,0.0,31,0.00,,,0.00,WUHU216HW,2013-08-02 01:19:00,
2013-08-01 18:24:00,86.0,51.9,29.83,North,0,0.0,0.0,31,0.00,,,0.00,WUHU216HW,2013-08-02 01:24:00,
2013-08-01 18:29:00,85.7,51.6,29.83,North,0,0.0,0.0,31,0.00,,,0.00,WUHU216HW,2013-08-02 01:29:00,
2013-08-01 18:34:00,85.3,51.3,29.83,North,0,0.0,0.0,31,0.00,,,0.00,WUHU216HW,2013-08-02 01:34:00,
2013-08-01 18:39:00,84.6,51.4,29.83,North,0,0.0,0.0,32,0.00,,,0.00,WUHU216HW,2013-08-02 01:39:00,
2013-08-01 18:45:00,84.2,51.8,29.83,North,0,0.0,0.0,33,0.00,,,0.00,WUHU216HW,2013-08-02 01:45:00,
2013-08-01 18:50:00,83.9,51.6,29.83,North,0,0.0,0.0,33,0.00,,,0.00,WUHU216HW,2013-08-02 01:50:00,
2013-08-01 18:55:00,83.5,51.2,29.83,North,0,0.0,0.0,33,0.00,,,0.00,WUHU216HW,2013-08-02 01:55:00,
2013-08-01 19:00:00,83.2,51.7,29.83,North,0,0.0,0.0,34,0.00,,,0.00,WUHU216HW,2013-08-02 02:00:00,
2013-08-01 19:05:00,83.0,51.6,29.83,North,0,0.0,0.0,34,0.00,,,0.00,WUHU216HW,2013-08-02 02:05:00,
2013-08-01 19:10:00,82.6,52.0,29.83,North,0,0.0,0.0,35,0.00,,,0.00,WUHU216HW,2013-08-02 02:10:00,
2013-08-01 19:16:00,82.3,51.7,29.83,North,0,0.0,0.0,35,0.00,,,0.00,WUHU216HW,2013-08-02 02:16:00,
2013-08-01 19:21:00,82.1,51.6,29.83,North,0,0.0,0.0,35,0.00,,,0.00,WUHU216HW,2013-08-02 02:21:00,
2013-08-01 19:26:00,81.9,52.9,29.83,North,0,0.0,0.0,37,0.00,,,0.00,WUHU216HW,2013-08-02 02:26:00,
2013-08-01 19:31:00,81.4,52.5,29.83,North,0,0.0,0.0,37,0.00,,,0.00,WUHU216HW,2013-08-02 02:31:00,
2013-08-01 19:36:00,80.6,52.7,29.83,North,0,0.0,0.0,38,0.00,,,0.00,WUHU216HW,2013-08-02 02:36:00,
2013-08-01 19:42:00,79.9,52.7,29.83,North,0,0.0,0.0,39,0.00,,,0.00,WUHU216HW,2013-08-02 02:42:00,
2013-08-01 19:47:00,79.6,52.5,29.83,North,0,0.0,0.0,39,0.00,,,0.00,WUHU216HW,2013-08-02 02:47:00,
2013-08-01 19:52:00,79.2,52.1,29.83,North,0,0.0,0.0,39,0.00,,,0.00,WUHU216HW,2013-08-02 02:52:00,
2013-08-01 19:57:00,78.7,52.4,29.83,North,0,0.0,0.0,40,0.00,,,0.00,WUHU216HW,2013-08-02 02:57:00,
2013-08-01 20:02:00,78.1,51.9,29.83,North,0,0.0,0.0,40,0.00,,,0.00,WUHU216HW,2013-08-02 03:02:00,
2013-08-01 20:07:00,77.8,51.6,29.83,North,0,0.0,0.0,40,0.00,,,0.00,WUHU216HW,2013-08-02 03:07:00,
2013-08-01 20:12:00,77.4,51.8,29.83,North,0,0.0,0.0,41,0.00,,,0.00,WUHU216HW,2013-08-02 03:12:00,
2013-08-01 20:17:00,76.9,51.4,29.83,North,0,0.0,0.0,41,0.00,,,0.00,WUHU216HW,2013-08-02 03:17:00,
2013-08-01 20:22:00,76.3,51.5,29.83,North,0,0.0,0.0,42,0.00,,,0.00,WUHU216HW,2013-08-02 03:22:00,
2013-08-01 20:27:00,76.0,51.2,29.83,North,0,0.0,0.0,42,0.00,,,0.00,WUHU216HW,2013-08-02 03:27:00,
2013-08-01 20:32:00,75.6,51.5,29.83,North,0,0.0,0.0,43,0.00,,,0.00,WUHU216HW,2013-08-02 03:32:00,
2013-08-01 20:37:00,75.2,51.1,29.83,North,0,0.0,0.0,43,0.00,,,0.00,WUHU216HW,2013-08-02 03:37:00,
2013-08-01 20:42:00,75.1,51.6,29.83,North,0,0.0,0.0,44,0.00,,,0.00,WUHU216HW,2013-08-02 03:42:00,
2013-08-01 20:47:00,74.5,51.1,29.83,North,0,0.0,0.0,44,0.00,,,0.00,WUHU216HW,2013-08-02 03:47:00,
2013-08-01 20:52:00,74.3,51.0,29.83,North,0,0.0,0.0,44,0.00,,,0.00,WUHU216HW,2013-08-02 03:52:00,
2013-08-01 20:57:00,73.8,51.0,29.83,North,0,0.0,0.0,45,0.00,,,0.00,WUHU216HW,2013-08-02 03:57:00,
2013-08-01 21:01:00,73.8,51.0,29.83,North,0,0.0,0.0,45,0.00,,,0.00,WUHU216HW,2013-08-02 04:01:00,
2013-08-01 21:02:00,73.6,50.9,29.83,North,0,0.0,0.0,45,0.00,,,0.00,WUHU216HW,2013-08-02 04:02:00,
2013-08-01 21:03:00,73.4,50.7,29.83,North,0,0.0,0.0,45,0.00,,,0.00,WUHU216HW,2013-08-02 04:03:00,
2013-08-01 21:08:00,73.1,50.9,29.83,North,0,0.0,0.0,46,0.00,,,0.00,WUHU216HW,2013-08-02 04:08:00,
2013-08-01 21:13:00,72.9,50.8,29.83,North,0,0.0,0.0,46,0.00,,,0.00,WUHU216HW,2013-08-02 04:13:00,
2013-08-01 21:15:00,72.7,50.6,29.83,North,0,0.0,0.0,46,0.00,,,0.00,WUHU216HW,2013-08-02 04:15:00,
2013-08-01 21:16:00,72.7,50.6,29.83,North,0,0.0,0.0,46,0.00,,,0.00,WUHU216HW,2013-08-02 04:16:00,
2013-08-01 21:21:00,72.5,50.5,29.84,North,0,0.0,0.0,46,0.00,,,0.00,WUHU216HW,2013-08-02 04:21:00,
2013-08-01 21:26:00,72.2,50.8,29.84,North,0,0.0,0.0,47,0.00,,,0.00,WUHU216HW,2013-08-02 04:26:00,
2013-08-01 21:31:00,72.0,50.6,29.84,North,0,0.0,0.0,47,0.00,,,0.00,WUHU216HW,2013-08-02 04:31:00,
2013-08-01 21:36:00,71.6,50.9,29.84,North,0,0.0,0.0,48,0.00,,,0.00,WUHU216HW,2013-08-02 04:36:00,
2013-08-01 21:41:00,71.3,50.5,29.84,North,0,0.0,0.0,48,0.00,,,0.00,WUHU216HW,2013-08-02 04:41:00,
2013-08-01 21:46:00,70.9,50.8,29.84,North,0,0.0,0.0,49,0.00,,,0.00,WUHU216HW,2013-08-02 04:46:00,
2013-08-01 21:51:00,70.7,50.6,29.84,North,0,0.0,0.0,49,0.00,,,0.00,WUHU216HW,2013-08-02 04:51:00,
2013-08-01 21:56:00,70.6,51.0,29.84,North,0,0.0,0.0,50,0.00,,,0.00,WUHU216HW,2013-08-02 04:56:00,
2013-08-01 22:01:00,70.4,50.9,29.84,North,0,0.0,0.0,50,0.00,,,0.00,WUHU216HW,2013-08-02 05:01:00,
2013-08-01 22:07:00,70.2,51.2,29.84,North,0,0.0,0.0,51,0.00,,,0.00,WUHU216HW,2013-08-02 05:07:00,
2013-08-01 22:12:00,69.8,51.0,29.84,North,0,0.0,0.0,51,0.00,,,0.00,WUHU216HW,2013-08-02 05:12:00,
2013-08-01 22:17:00,69.7,50.8,29.84,North,0,0.0,0.0,51,0.00,,,0.00,WUHU216HW,2013-08-02 05:17:00,
2013-08-01 22:22:00,69.5,50.6,29.85,North,0,0.0,0.0,51,0.00,,,0.00,WUHU216HW,2013-08-02 05:22:00,
2013-08-01 22:27:00,69.1,50.2,29.85,North,0,0.0,0.0,51,0.00,,,0.00,WUHU216HW,2013-08-02 05:27:00,
2013-08-01 22:32:00,68.9,50.6,29.85,North,0,0.0,0.0,52,0.00,,,0.00,WUHU216HW,2013-08-02 05:32:00,
2013-08-01 22:37:00,68.8,51.0,29.84,North,0,0.0,0.0,53,0.00,,,0.00,WUHU216HW,2013-08-02 05:37:00,
2013-08-01 22:42:00,68.6,50.8,29.84,North,0,0.0,0.0,53,0.00,,,0.00,WUHU216HW,2013-08-02 05:42:00,
2013-08-01 22:47:00,68.2,50.9,29.85,North,0,0.0,0.0,54,0.00,,,0.00,WUHU216HW,2013-08-02 05:47:00,
2013-08-01 22:52:00,68.0,50.8,29.84,North,0,0.0,0.0,54,0.00,,,0.00,WUHU216HW,2013-08-02 05:52:00,
2013-08-01 22:57:00,67.9,50.6,29.84,North,0,0.0,0.0,54,0.00,,,0.00,WUHU216HW,2013-08-02 05:57:00,
2013-08-01 23:02:00,67.9,50.6,29.84,North,0,0.0,0.0,54,0.00,,,0.00,WUHU216HW,2013-08-02 06:02:00,
2013-08-01 23:07:00,67.7,50.4,29.84,North,0,0.0,0.0,54,0.00,,,0.00,WUHU216HW,2013-08-02 06:07:00,
2013-08-01 23:12:00,67.5,50.8,29.84,North,0,0.0,0.0,55,0.00,,,0.00,WUHU216HW,2013-08-02 06:12:00,
2013-08-01 23:17:00,67.3,50.6,29.84,North,0,0.0,0.0,55,0.00,,,0.00,WUHU216HW,2013-08-02 06:17:00,
2013-08-01 23:23:00,67.1,50.4,29.85,North,0,0.0,0.0,55,0.00,,,0.00,WUHU216HW,2013-08-02 06:23:00,
2013-08-01 23:28:00,67.0,50.8,29.85,North,0,0.0,0.0,56,0.00,,,0.00,WUHU216HW,2013-08-02 06:28:00,
2013-08-01 23:33:00,67.0,50.8,29.85,North,0,0.0,0.0,56,0.00,,,0.00,WUHU216HW,2013-08-02 06:33:00,
2013-08-01 23:38:00,66.8,50.6,29.84,North,0,0.0,0.0,56,0.00,,,0.00,WUHU216HW,2013-08-02 06:38:00,
2013-08-01 23:43:00,66.6,50.9,29.84,North,0,0.0,0.0,57,0.00,,,0.00,WUHU216HW,2013-08-02 06:43:00,
2013-08-01 23:48:00,66.4,50.8,29.84,North,0,0.0,0.0,57,0.00,,,0.00,WUHU216HW,2013-08-02 06:48:00,
2013-08-01 23:53:00,66.2,51.0,29.85,North,0,0.0,0.0,58,0.00,,,0.00,WUHU216HW,2013-08-02 06:53:00,
2013-08-01 23:58:00,66.1,50.9,29.84,North,0,0.0,0.0,58,0.00,,,0.00,WUHU216HW,2013-08-02 06:58:00,